This is the latest recevied weather packets stored in our database for station/object KC9MWQ-13. If no packets are shown the sender has not sent any weather packets the latest 1 day(s).
| Time | Temp. | Humidity | Pressure | Rain* | Wind** | Luminosity | Snow |
|---|---|---|---|---|---|---|---|
| 1778037533 | 8.33° C | 99% | 1010.3 hPa | 1.27 mm | - | 0 W/m² | - |
| 1778036928 | 8.33° C | 99% | 1010.7 hPa | 1.78 mm | - | 0 W/m² | - |
| 1778036626 | 8.33° C | 99% | 1010.4 hPa | 1.78 mm | - | 0 W/m² | - |
| 1778036019 | 8.33° C | 99% | 1010.3 hPa | 4.32 mm | - | 0 W/m² | - |
| 1778035716 | 8.33° C | 99% | 1010.4 hPa | 1.27 mm | - | 0 W/m² | - |
| 1778035413 | 8.33° C | 99% | 1010.7 hPa | 1.78 mm | - | 0 W/m² | - |
| 1778035109 | 8.33° C | 99% | 1010.5 hPa | 1.78 mm | - | 0 W/m² | - |
| 1778034806 | 8.33° C | 99% | 1010.5 hPa | 1.27 mm | - | 0 W/m² | - |
| 1778034503 | 8.33° C | 99% | 1010.5 hPa | 1.27 mm | - | 0 W/m² | - |
| 1778033899 | 8.33° C | 99% | 1010.2 hPa | 0 mm | - | 0 W/m² | - |
| 1778033595 | 8.33° C | 99% | 1010 hPa | 0 mm | - | 0 W/m² | - |
| 1778033292 | 8.33° C | 99% | 1009.7 hPa | 1.78 mm | - | 0 W/m² | - |
| 1778032990 | 8.33° C | 99% | 1009.9 hPa | 1.78 mm | - | 0 W/m² | - |
| 1778032081 | 8.33° C | 99% | 1010 hPa | 1.27 mm | - | 0 W/m² | - |
| 1778031778 | 8.33° C | 99% | 1010 hPa | 1.78 mm | - | 0 W/m² | - |
| 1778031475 | 8.33° C | 99% | 1009.9 hPa | 1.78 mm | - | 0 W/m² | - |
| 1778031172 | 8.33° C | 99% | 1009.9 hPa | 0 mm | - | 0 W/m² | - |
| 1778030868 | 8.33° C | 99% | 1010.1 hPa | 0 mm | - | 0 W/m² | - |
| 1778030565 | 8.33° C | 99% | 1010.3 hPa | 0 mm | - | 0 W/m² | - |
| 1778030263 | 8.33° C | 99% | 1010 hPa | 0 mm | - | 0 W/m² | - |
| 1778029959 | 8.33° C | 99% | 1010.1 hPa | 0 mm | - | 0 W/m² | - |
| 1778029657 | 8.33° C | 99% | 1010 hPa | 1.27 mm | - | 0 W/m² | - |
| 1778029354 | 8.33° C | 99% | 1009.8 hPa | 1.27 mm | - | 0 W/m² | - |
* Rain latest hour (hover to see other rain measurements)
** Current wind speed in m/s (hover to see current wind gust speed)